Hourly Weather Kajkowo

Today, 9 March, Tuesday

Time Temperature Precipitation Wind Pressure Humidity
00:00 -3°C° 0 mm 1 mps 754 mmHg 83%
01:00 -3°C° 0 mm 1 mps 754 mmHg 85%
02:00 -3°C° 0 mm 1 mps 754 mmHg 84%
03:00 -3°C° 0 mm 1 mps 754 mmHg 83%
04:00 -4°C° 0 mm 0 mps 754 mmHg 83%
05:00 -4°C° 0 mm 0 mps 754 mmHg 81%
06:00 -4°C° 0 mm 0 mps 754 mmHg 79%
07:00 -3°C° 0 mm 0 mps 754 mmHg 77%
08:00 -2°C° 0 mm 1 mps 754 mmHg 72%
09:00 -1°C° 0 mm 1 mps 754 mmHg 67%
10:00 0°C° 0 mm 1 mps 755 mmHg 62%
11:00 0°C° 0 mm 1 mps 754 mmHg 59%
12:00 +1°C° 0 mm 1 mps 754 mmHg 56%
13:00 +1°C° 0 mm 1 mps 754 mmHg 54%
14:00 +1°C° 0 mm 1 mps 754 mmHg 54%
15:00 +1°C° 0 mm 1 mps 754 mmHg 54%
16:00 +1°C° 0 mm 1 mps 753 mmHg 54%
17:00 0°C° 0 mm 1 mps 753 mmHg 57%
18:00 -1°C° 0 mm 1 mps 753 mmHg 61%
19:00 -2°C° 0 mm 1 mps 753 mmHg 65%
20:00 -4°C° 0 mm 2 mps 753 mmHg 64%
21:00 -4°C° 0 mm 2 mps 753 mmHg 63%
22:00 -4°C° 0 mm 2 mps 753 mmHg 63%
23:00 -4°C° 0 mm 2 mps 753 mmHg 63%

Tomorrow, 10 March, Wednesday

Time Temperature Precipitation Wind Pressure Humidity
00:00 -4°C° 0 mm 2 mps 753 mmHg 64%
01:00 -5°C° 0 mm 2 mps 753 mmHg 64%
02:00 -5°C° 0 mm 2 mps 753 mmHg 65%
03:00 -5°C° 0 mm 2 mps 753 mmHg 65%
04:00 -5°C° 0 mm 2 mps 752 mmHg 65%
05:00 -3°C° 0 mm 1 mps 753 mmHg 65%
06:00 -2°C° 0 mm 1 mps 753 mmHg 65%
07:00 -2°C° 0 mm 1 mps 753 mmHg 65%
08:00 -1°C° 0 mm 1 mps 753 mmHg 61%
09:00 0°C° 0 mm 1 mps 753 mmHg 57%
10:00 +1°C° 0 mm 2 mps 753 mmHg 53%
11:00 +1°C° 0 mm 2 mps 753 mmHg 51%
12:00 +2°C° 0 mm 2 mps 753 mmHg 49%
13:00 +2°C° 0 mm 2 mps 753 mmHg 47%
14:00 +3°C° 0 mm 1 mps 753 mmHg 48%
15:00 +3°C° 0 mm 1 mps 753 mmHg 50%
16:00 +3°C° 0 mm 1 mps 753 mmHg 51%
17:00 +2°C° 0 mm 1 mps 753 mmHg 55%
18:00 0°C° 0 mm 0 mps 753 mmHg 59%
19:00 -1°C° 0 mm 0 mps 753 mmHg 63%
20:00 -1°C° 0 mm 1 mps 753 mmHg 65%
21:00 -1°C° 0 mm 1 mps 753 mmHg 66%
22:00 -3°C° 0 mm 2 mps 753 mmHg 68%
23:00 -3°C° 0 mm 2 mps 753 mmHg 69%

Day after tomorrow, 11 March, Thursday

Time Temperature Precipitation Wind Pressure Humidity
00:00 -3°C° 0 mm 2 mps 753 mmHg 70%
01:00 -3°C° 0 mm 2 mps 753 mmHg 71%
02:00 -4°C° 0 mm 3 mps 752 mmHg 70%
03:00 -4°C° 0 mm 3 mps 752 mmHg 69%
04:00 -5°C° 0 mm 3 mps 751 mmHg 68%
05:00 -4°C° 0 mm 3 mps 751 mmHg 66%
06:00 -4°C° 0 mm 4 mps 751 mmHg 64%
07:00 -4°C° 0 mm 4 mps 751 mmHg 61%
08:00 -4°C° 0 mm 5 mps 750 mmHg 56%
09:00 -3°C° 0 mm 6 mps 750 mmHg 51%
10:00 -2°C° 0 mm 7 mps 750 mmHg 46%
11:00 -1°C° 0 mm 7 mps 749 mmHg 45%
12:00 -1°C° 0 mm 8 mps 748 mmHg 44%
13:00 0°C° 0 mm 8 mps 747 mmHg 43%
14:00 0°C° 0 mm 8 mps 746 mmHg 44%
15:00 -1°C° 0 mm 8 mps 745 mmHg 46%
16:00 -1°C° 0 mm 8 mps 744 mmHg 48%
17:00 -1°C° 0.3 mm 8 mps 743 mmHg 62%
18:00 -3°C° 0.3 mm 9 mps 742 mmHg 75%
19:00 -4°C° 0.3 mm 9 mps 742 mmHg 89%
20:00 -4°C° 1 mm 8 mps 741 mmHg 92%
21:00 -2°C° 1 mm 7 mps 740 mmHg 94%
22:00 -2°C° 1 mm 6 mps 739 mmHg 96%
23:00 -1°C° 0.7 mm 6 mps 739 mmHg 97%

12 March, Friday

Time Temperature Precipitation Wind Pressure Humidity
00:00 0°C° 0.7 mm 5 mps 739 mmHg 97%
01:00 +1°C° 0.7 mm 4 mps 738 mmHg 97%
02:00 +1°C° 0.1 mm 4 mps 738 mmHg 97%
03:00 +1°C° 0.1 mm 4 mps 738 mmHg 97%
04:00 +1°C° 0.1 mm 4 mps 738 mmHg 96%
05:00 +1°C° 0.2 mm 4 mps 738 mmHg 96%
06:00 +1°C° 0.2 mm 4 mps 738 mmHg 96%
07:00 +1°C° 0.2 mm 5 mps 739 mmHg 96%
08:00 +1°C° 0.5 mm 4 mps 739 mmHg 96%
09:00 +1°C° 0.5 mm 4 mps 740 mmHg 96%
10:00 +1°C° 0.5 mm 4 mps 740 mmHg 96%
11:00 +1°C° 0.4 mm 4 mps 741 mmHg 96%
12:00 0°C° 0.4 mm 4 mps 741 mmHg 96%
13:00 0°C° 0.4 mm 5 mps 742 mmHg 95%
14:00 +1°C° 0.1 mm 4 mps 742 mmHg 90%
15:00 +3°C° 0.1 mm 4 mps 743 mmHg 84%
16:00 +4°C° 0.1 mm 4 mps 743 mmHg 79%
17:00 +3°C° 0 mm 4 mps 743 mmHg 81%
18:00 +2°C° 0 mm 3 mps 743 mmHg 84%
19:00 +1°C° 0 mm 3 mps 744 mmHg 86%
20:00 0°C° 0 mm 3 mps 744 mmHg 87%
21:00 0°C° 0 mm 3 mps 744 mmHg 87%
22:00 -1°C° 0 mm 4 mps 744 mmHg 87%
23:00 -1°C° 0 mm 4 mps 743 mmHg 87%

13 March, Saturday

Time Temperature Precipitation Wind Pressure Humidity
00:00 -1°C° 0 mm 4 mps 743 mmHg 86%
01:00 -1°C° 0 mm 4 mps 742 mmHg 86%
02:00 -1°C° 0 mm 5 mps 742 mmHg 84%
03:00 -1°C° 0 mm 5 mps 741 mmHg 83%
04:00 -1°C° 0 mm 5 mps 741 mmHg 82%
05:00 -1°C° 0.2 mm 5 mps 741 mmHg 86%
06:00 -2°C° 0.2 mm 6 mps 741 mmHg 89%
07:00 -1°C° 0.2 mm 6 mps 741 mmHg 92%
08:00 -1°C° 0.5 mm 6 mps 741 mmHg 90%
09:00 +1°C° 0.5 mm 6 mps 741 mmHg 88%
10:00 +2°C° 0.5 mm 5 mps 741 mmHg 87%
11:00 +2°C° 0.1 mm 5 mps 741 mmHg 83%
12:00 +3°C° 0.1 mm 5 mps 742 mmHg 79%
13:00 +3°C° 0.1 mm 5 mps 742 mmHg 75%
14:00 +5°C° 0 mm 5 mps 741 mmHg 74%
15:00 +5°C° 0 mm 4 mps 741 mmHg 73%
16:00 +5°C° 0 mm 3 mps 741 mmHg 72%
17:00 +4°C° 0 mm 4 mps 741 mmHg 75%
18:00 +4°C° 0 mm 4 mps 740 mmHg 77%
19:00 +2°C° 0 mm 5 mps 740 mmHg 80%
20:00 +2°C° 0 mm 5 mps 739 mmHg 81%
21:00 +3°C° 0 mm 6 mps 739 mmHg 82%
22:00 +3°C° 0 mm 7 mps 739 mmHg 82%
23:00 +3°C° 0.1 mm 7 mps 738 mmHg 85%

14 March, Sunday

Time Temperature Precipitation Wind Pressure Humidity
00:00 +3°C° 0.1 mm 6 mps 738 mmHg 87%
01:00 +3°C° 0.1 mm 6 mps 738 mmHg 90%
02:00 +3°C° 0 mm 6 mps 737 mmHg 88%
03:00 +3°C° 0 mm 6 mps 737 mmHg 86%
04:00 +3°C° 0 mm 6 mps 736 mmHg 84%
05:00 +3°C° 0.1 mm 6 mps 736 mmHg 85%
06:00 +3°C° 0.1 mm 6 mps 736 mmHg 86%
07:00 +3°C° 0.1 mm 6 mps 736 mmHg 86%
08:00 +4°C° 0.4 mm 7 mps 736 mmHg 87%
09:00 +4°C° 0.4 mm 7 mps 736 mmHg 88%
10:00 +4°C° 0.4 mm 7 mps 736 mmHg 89%
11:00 +4°C° 0.1 mm 7 mps 736 mmHg 82%
12:00 +4°C° 0.1 mm 7 mps 737 mmHg 74%
13:00 +5°C° 0.1 mm 8 mps 737 mmHg 67%
14:00 +4°C° 0.1 mm 7 mps 737 mmHg 67%
15:00 +4°C° 0.1 mm 7 mps 737 mmHg 68%
16:00 +4°C° 0.1 mm 7 mps 738 mmHg 68%
17:00 +3°C° 0 mm 7 mps 738 mmHg 71%
18:00 +3°C° 0 mm 7 mps 738 mmHg 75%
19:00 +2°C° 0 mm 6 mps 739 mmHg 79%
20:00 +2°C° 0 mm 6 mps 739 mmHg 82%
21:00 +2°C° 0 mm 6 mps 739 mmHg 85%
22:00 +1°C° 0 mm 6 mps 740 mmHg 88%
23:00 +1°C° 0 mm 6 mps 740 mmHg 88%
Show more

We Need Your Consent

Meteoprog and our Service Providers may store and access personal data such as cookies, device identifiers or other similar technologies on your device and process such data to personalise content and ads, as well as provide social media features and to analyse the traffic.

  • Store and/or access information on your device

    Cookies, device identifiers or other information can be stored or accessed on your device for the purposes indicated above.

  • Personalised ads and content, ad and content measurement, audience insights, and products development

    Ads and content can be personalised based on a profile. More data can be added to better personalise ads and content. Ad and content performance can be measured. Insights about the audience who saw the ads and content can be derived. Such data can be used to develop or improve user’s experience, systems and software.

By clicking ‘I Agree’ you will allow the use of indicated cookies, device identifiers, web beacons or other similar technologies. Your settings can be changed in the browser on your device.

For certain purposes, legitimate interests may be relied on, rather than consent. You can read more about this in our Privacy and Cookie Policy.